CAPE
3 3 3 3 3 3 3 3 3 2 3 3 3 3 2 3 3 3 2 3 3 1 3 2 2 3 3 1 2 2 1 0 0 0 0 0 0 0 0 0 0 0 123 177 0 0 0 0 58 406 461 358 556 387 414 801 835 988 840 838 721 600 576 1010 819 761 652 1271 975 1441 1006 1002 925 994 901 981 924 928 649 697 343 486 533 450 512 434 459 533
4 4 3 3 3 2 2 3 3 4 3 2 5 4 2 2 3 3 2 2 0 3 3 1 2 2 3 2 2 3 0 0 0 0 0 0 0 0 0 0 0 0 364 0 0 0 0 0 235 416 487 640 357 643 323 947 842 1092 356 1194 872 703 484 1050 1045 1185 1060 1060 1243 1263 1282 1203 1146 986 910 875 903 799 699 555 460 563 651 549 516 450 454 508
3 3 3 3 3 1 2 3 3 3 2 3 2 3 4 2 3 3 3 1 2 4 3 3 2 3 1 2 3 0 0 0 0 0 0 0 0 0 0 0 0 78 6 0 0 0 0 3 397 512 439 720 423 625 362 1518 983 872 903 1054 782 1045 1018 1106 1316 1292 1506 1231 1310 1312 1315 1410 1241 1259 807 834 552 583 695 626 412 283 327 468 446 435 426 432
2 1 2 2 2 3 3 4 3 3 3 2 1 2 2 2 3 2 3 4 2 3 4 2 2 0 2 1 1 0 0 0 0 0 4 0 0 0 0 0 0 175 1 0 0 0 0 36 437 505 358 476 547 442 546 1003 1080 606 453 606 1013 977 967 1324 1750 1690 1306 1150 1332 1566 1218 1360 1160 1145 1064 522 414 739 673 345 341 320 279 464 411 335 401 355
2 2 3 4 2 3 3 3 3 3 3 3 2 2 3 4 2 2 3 3 2 2 2 5 1 0 2 1 0 0 0 0 0 0 104 0 0 0 0 0 56 0 0 0 0 0 0 16 454 485 351 828 479 566 547 734 672 681 620 994 1159 914 838 1653 1797 1747 1334 1608 1607 1546 1270 1470 1465 1277 917 402 191 414 495 328 315 392 392 429 400 340 324 384
3 3 3 3 4 3 3 3 2 3 3 4 2 2 1 3 2 2 3 2 1 2 4 3 2 2 0 1 0 0 0 0 0 0 306 0 0 0 0 12 281 0 0 0 0 0 0 3 304 409 530 755 693 629 545 578 609 1044 814 1198 986 786 1392 1536 1539 1653 1665 1736 1596 1399 1408 1556 1560 1345 668 916 1240 423 393 326 418 412 379 364 261 254 333 335
3 3 3 3 4 4 4 3 3 2 1 2 2 2 3 0 2 2 4 2 1 2 1 2 3 2 0 0 0 0 0 0 0 0 679 0 0 0 0 79 554 0 0 0 0 0 0 0 200 366 805 832 746 438 218 618 408 735 945 1001 1043 1578 1868 1718 1683 1629 1686 1696 1551 1567 1444 1819 1537 1187 956 1555 1277 632 402 385 428 383 300 258 276 387 315 337
2 3 3 2 3 3 2 3 2 1 1 2 3 3 2 3 2 2 2 2 3 2 2 1 3 0 0 0 0 0 0 0 0 248 106 0 0 0 0 0 0 0 0 0 0 0 0 0 156 412 913 702 418 281 228 176 46 260 826 1002 994 1683 1868 1702 1637 1708 1611 1655 1894 1768 1608 1677 1544 1376 1326 1400 1153 452 335 550 334 337 309 312 380 373 365 354
2 3 2 3 3 4 3 2 2 2 2 2 3 3 2 3 3 2 1 2 2 3 2 1 1 0 0 0 0 0 0 0 0 0 7 0 0 0 0 0 0 0 0 0 0 0 0 0 140 513 875 550 238 207 183 0 516 89 885 1071 1292 1490 1808 1668 1828 1809 1725 1992 1882 1765 1636 1397 1691 1440 1483 1309 1028 520 516 660 431 460 353 320 317 335 391 389
3 2 3 3 4 2 2 3 3 3 2 1 2 3 2 2 1 2 4 1 1 1 2 2 0 1 0 0 0 0 0 0 0 69 0 0 0 0 0 0 0 0 0 0 0 0 0 0 189 517 410 140 0 0 262 1 256 326 1221 1328 1398 1328 1721 1682 1724 1648 1796 1800 1693 1849 1718 1732 1560 1554 1216 1326 971 418 435 618 558 418 373 285 305 388 442 266
3 3 2 3 2 2 2 3 3 2 2 2 1 3 3 2 2 3 4 4 2 2 2 1 1 0 0 0 0 0 0 0 0 0 0 0 0 0 0 0 0 0 0 0 0 0 0 0 261 480 265 47 0 118 0 58 134 1116 1340 1272 1366 1476 1413 1576 1572 1566 1389 1422 1485 1625 1692 1722 1725 1702 1292 1311 892 455 452 642 387 276 314 272 274 234 290 164
2 2 3 2 2 2 2 2 2 2 2 2 2 2 2 3 2 2 2 2 2 2 1 3 0 0 0 0 0 0 0 0 0 0 0 0 0 0 0 0 0 0 0 0 0 0 0 13 334 307 196 0 0 0 0 222 850 977 1132 1360 1351 1455 1594 1512 1501 1426 1339 1387 1450 1667 1120 1322 1498 1440 1106 1106 891 690 338 558 426 264 265 414 272 212 222 294
2 2 2 2 4 2 2 2 2 2 3 2 0 2 3 2 2 2 1 0 1 0 0 0 0 0 0 0 0 0 0 0 0 0 0 0 0 0 0 0 0 0 0 0 0 0 0 0 202 314 82 0 0 0 147 109 578 788 739 1243 1261 1164 1408 1093 1108 1077 1336 1582 1583 1393 683 749 964 1224 1070 981 1069 768 424 453 310 244 322 358 298 217 176 299
1 2 2 2 2 2 2 2 2 1 2 2 3 1 1 2 2 1 2 0 1 0 0 0 0 0 0 0 0 0 0 0 0 0 0 0 0 0 0 0 0 0 0 0 0 0 0 0 0 333 2 0 0 0 0 0 362 948 822 974 790 918 837 1122 1163 810 870 894 1142 1070 656 724 1071 1267 1238 1121 1030 932 689 651 325 282 226 294 265 137 138 307
2 3 2 2 2 2 2 2 2 2 1 2 1 1 0 1 1 1 0 1 0 0 0 0 0 0 0 0 0 0 0 0 0 0 0 0 0 0 0 0 0 0 0 0 0 0 0 0 128 294 52 0 0 0 0 7 288 761 543 746 729 444 379 994 643 761 588 742 1214 1136 672 468 927 1115 1356 1219 1111 938 860 701 449 257 197 236 231 94 102 302
5 3 2 2 2 2 3 4 5 2 2 0 2 1 0 0 0 0 0 0 0 0 0 0 0 0 0 0 0 0 0 0 0 0 0 0 0 0 0 0 0 0 0 0 0 0 0 0 9 174 48 0 0 0 5 105 150 343 228 94 996 617 1120 864 733 765 1108 938 1098 738 746 469 769 1173 1272 1238 1083 889 719 572 479 294 195 216 236 98 101 217
5 5 4 2 2 2 1 4 5 1 2 1 0 0 0 0 0 0 0 0 0 0 0 0 0 0 0 0 0 0 0 0 0 0 0 0 0 0 0 0 0 0 0 0 0 0 0 0 16 273 8 0 0 0 98 216 411 517 499 232 442 525 444 404 852 1132 682 1141 427 499 1194 623 763 1247 1363 1378 1342 1154 874 556 390 334 225 206 177 95 138 317
2 3 3 4 2 1 2 5 3 1 0 0 0 0 0 0 0 0 0 0 0 0 0 0 0 0 0 0 0 0 0 0 0 0 0 0 0 0 0 0 0 0 0 0 0 0 0 0 0 106 24 0 0 0 52 304 464 645 691 535 354 659 244 532 375 541 974 1030 675 629 1372 907 1288 1311 1252 1451 1514 1435 949 614 458 354 314 300 206 117 204 296
2 2 4 6 4 2 2 3 2 0 0 0 0 0 0 0 0 0 0 0 0 97 89 8 0 0 0 0 0 0 0 0 0 0 0 0 0 0 0 0 0 0 0 0 0 0 0 0 0 0 3 0 7 0 68 0 201 486 739 500 219 452 551 393 1224 1305 844 689 736 1222 1169 1188 1117 1341 1267 1246 1467 1532 1146 801 562 481 377 365 254 174 293 479
2 3 5 6 6 2 1 1 2 0 0 0 0 0 0 22 3 1 0 0 0 0 0 0 0 0 0 0 0 0 0 0 0 0 0 0 0 0 0 0 0 0 0 0 0 0 0 0 52 18 2 24 87 29 0 0 0 592 361 258 498 22 509 1040 874 1409 834 656 481 1125 1014 1217 996 1158 1211 1276 1385 1464 1267 821 611 539 507 357 284 273 378 592
3 4 5 5 4 5 1 1 4 1 0 0 0 0 0 0 0 0 0 0 0 0 0 0 0 0 0 0 0 0 0 0 0 0 0 0 0 0 0 0 0 0 0 0 0 0 0 4 74 76 27 0 0 0 0 0 0 113 321 163 587 629 238 937 681 966 760 688 755 664 748 1082 776 1050 1326 1199 1256 1394 1068 844 756 521 476 401 297 377 510 579
3 4 4 3 4 2 2 1 1 0 0 0 0 0 0 0 0 0 0 0 0 0 0 0 0 0 0 0 0 0 0 0 0 0 0 0 0 0 0 0 0 0 0 0 0 0 0 5 26 31 0 0 0 0 0 0 0 140 474 367 505 424 1275 690 1173 1268 1004 540 374 407 658 647 524 1349 1146 1180 1154 1260 1016 1088 838 586 470 481 343 350 370 415
2 4 2 4 3 2 0 2 1 0 0 0 0 0 0 0 0 0 0 0 0 0 0 0 0 0 0 0 0 0 0 0 0 0 0 0 0 0 0 0 0 0 0 0 0 0 0 11 40 0 0 0 0 0 0 0 0 0 244 397 195 783 539 1048 1328 1071 1258 468 189 696 803 686 765 429 1001 1160 994 997 1272 1225 1230 753 593 549 464 342 234 168
1 1 4 2 2 1 0 0 1 0 0 0 0 0 0 0 0 0 0 0 0 0 0 0 0 0 0 0 0 0 0 0 0 0 0 0 0 0 0 0 0 0 0 0 0 0 0 7 1 0 0 0 0 0 0 0 1 0 0 67 92 566 257 239 1321 1316 1365 1050 941 852 544 788 837 535 635 713 1078 1272 1306 1271 1082 871 683 592 452 311 233 155
1 1 1 2 0 1 0 0 0 0 0 0 0 0 0 0 0 0 0 0 0 0 0 0 0 0 0 0 0 0 0 0 0 0 0 0 0 0 0 0 0 0 0 0 0 0 0 0 0 0 0 0 0 0 0 0 0 0 0 0 6 278 377 494 1212 1135 1209 1008 1151 546 92 734 919 905 1018 1362 1069 1213 1390 1398 940 963 734 558 378 298 201 159
1 2 1 1 1 0 0 0 0 0 0 0 0 0 0 0 0 0 0 0 0 0 0 0 0 0 0 0 0 0 0 0 0 0 0 0 0 0 0 0 0 0 0 0 0 0 0 0 0 0 0 0 0 0 0 0 2 0 6 0 0 160 467 695 745 979 374 851 1141 871 314 110 978 1176 1227 1130 980 1057 1292 1298 1105 1008 850 628 544 327 142 123
1 1 2 1 1 0 0 0 0 0 0 0 0 0 0 0 0 0 0 0 0 0 0 0 0 0 0 0 0 0 0 0 0 0 0 0 0 0 0 0 0 0 0 0 0 0 0 0 0 0 0 0 0 0 0 0 0 2 0 5 0 54 400 560 815 314 195 547 399 806 519 89 454 1058 891 678 668 1211 1239 1225 1040 664 795 609 608 375 153 73
0 0 1 1 2 0 0 0 0 0 0 0 0 0 0 0 0 0 0 0 0 0 0 0 0 0 0 0 0 0 0 0 0 0 0 0 0 0 0 0 0 0 0 0 0 0 0 0 0 0 0 0 0 0 0 0 13 16 0 13 6 4 215 360 790 460 284 599 854 956 909 588 137 946 820 773 1138 635 691 1324 1034 889 897 699 662 462 254 42
0 0 0 1 1 1 0 0 0 0 0 0 0 0 0 0 0 0 3 0 0 0 0 0 0 0 0 0 0 0 0 0 0 0 0 0 0 0 0 0 0 0 0 0 0 0 0 0 0 0 0 0 0 0 0 0 1 0 7 7 0 0 0 208 295 143 305 246 475 934 840 420 354 1023 1285 653 450 568 1277 1390 1188 1137 941 761 590 509 281 77
0 0 1 1 0 0 0 0 0 0 0 0 0 0 0 0 0 44 0 0 0 0 0 0 0 0 0 0 0 0 0 0 0 0 0 0 0 0 0 0 0 0 0 0 0 0 0 0 0 0 0 0 0 0 0 0 0 0 0 4 0 0 32 50 189 545 456 180 175 428 846 294 153 845 578 1244 1178 1000 994 1193 1446 1342 1083 904 752 501 317 129
0 0 1 1 0 0 0 0 0 0 0 0 0 0 0 0 15 0 0 0 0 0 0 0 0 0 0 0 0 0 0 0 0 0 0 0 0 0 0 0 0 0 0 0 0 0 0 0 0 0 0 0 0 0 0 0 0 0 6 0 0 83 83 0 54 142 102 99 58 428 788 379 255 463 1164 906 1004 1082 1210 1169 1304 1324 1187 898 834 611 338 301
0 0 0 1 0 0 0 0 0 0 0 0 0 0 2 22 0 0 0 0 0 0 0 0 0 0 0 0 0 0 0 0 0 0 0 0 0 0 0 0 0 0 0 0 0 0 0 0 0 0 0 0 0 0 0 0 0 0 0 0 16 12 0 0 26 9 1 114 384 138 448 730 365 574 642 1106 1090 1014 1284 1071 1067 1163 1230 1145 858 714 438 268
0 0 1 0 0 0 0 0 0 0 0 0 0 1 18 1 3 0 0 0 0 0 0 0 0 0 0 0 0 0 0 0 0 0 0 0 0 0 0 0 0 0 0 0 0 0 0 0 0 0 0 0 0 0 0 0 0 0 0 2 6 6 12 10 80 22 117 5 194 258 517 462 448 695 673 961 964 809 1048 1142 1049 1194 1286 1238 1130 905 550 307
0 0 0 0 0 0 0 0 0 0 0 0 0 0 4 0 0 0 0 0 0 0 0 0 0 0 0 0 0 0 0 0 0 0 0 0 0 0 0 0 0 0 0 0 0 0 0 0 0 0 0 0 0 0 0 0 0 0 0 0 0 41 22 6 57 51 79 244 179 615 238 589 448 877 650 921 1036 1211 1169 1150 1277 995 878 1285 1464 1163 689 456
0 0 0 0 0 0 0 0 0 0 0 0 0 0 0 0 0 0 0 0 0 0 0 0 0 0 0 0 0 0 0 0 0 0 0 0 0 0 0 0 0 0 0 0 0 0 0 0 0 0 0 0 0 0 0 0 0 0 0 0 0 0 56 102 142 153 136 162 676 696 309 733 862 1084 1190 866 818 1102 1148 1222 1247 1245 1147 1370 1634 1418 683 526
0 0 0 3 0 0 0 0 0 0 0 0 2 0 0 0 0 0 0 0 0 0 0 0 0 0 0 0 0 0 0 0 0 0 0 0 0 0 0 0 0 0 0 0 0 0 0 0 0 0 0 0 0 0 0 0 0 0 0 0 0 0 57 169 119 144 84 99 225 834 381 493 757 699 980 1316 1210 1217 1080 1260 1316 1486 1484 1466 1929 1739 1298 1305
6 0 85 12 25 0 0 0 0 0 0 0 0 0 0 0 0 0 0 0 0 0 0 0 0 0 0 0 0 0 0 0 0 0 0 0 0 0 0 0 0 0 0 0 0 0 0 0 0 0 0 0 0 0 0 0 0 0 0 0 0 2 64 106 116 169 60 93 101 198 494 367 420 418 924 1301 1494 1619 1341 1356 1564 1731 1678 1473 1424 1457 1499 1262
0 0 0 0 0 0 0 0 0 0 9 0 0 0 0 0 0 0 0 0 0 0 0 0 0 0 0 0 0 0 0 0 0 0 3 0 0 0 0 0 0 0 0 0 0 0 0 0 0 0 0 0 0 0 0 0 0 0 0 0 0 0 5 131 85 104 162 15 40 326 270 96 291 802 880 1391 1442 1493 1414 1444 1619 1691 1712 1565 1384 1434 1502 1412
1 0 0 0 0 0 0 0 0 0 2 0 0 0 0 0 0 0 0 0 0 0 0 0 0 0 0 0 0 0 0 0 0 1 0 0 0 0 0 0 0 0 0 0 0 0 0 0 0 0 0 0 0 0 0 0 0 0 0 0 0 0 0 59 58 93 101 68 39 200 330 226 154 129 670 1231 1317 1656 1499 1403 1573 1714 1680 1729 1725 1676 1678 1631
0 0 0 0 0 0 1 0 7 0 0 0 0 0 0 0 0 0 0 0 0 0 0 0 0 0 0 0 0 0 0 0 1 3 0 0 0 0 0 0 0 0 0 0 0 0 0 0 6 0 0 0 0 0 0 0 0 0 0 0 0 0 0 0 2 38 34 108 76 210 355 163 1032 1444 1731 1546 1698 1840 1799 1705 1627 1739 1711 1683 1685 1612 1739 1820
0 0 0 0 0 0 0 70 3 0 0 0 0 0 0 0 0 0 0 0 0 0 0 0 0 1 0 0 0 0 0 0 0 0 0 0 0 0 0 0 0 0 0 0 0 0 0 0 6 2 0 0 0 0 0 0 0 0 0 0 0 0 0 0 0 0 0 42 75 176 193 309 908 1158 1814 2081 1977 1827 1911 1988 1976 1781 1690 1673 1692 1837 1635 2080
0 0 0 0 0 0 21 0 0 0 0 0 0 0 0 0 0 0 0 0 0 0 0 0 0 3 1 1 2 1 0 0 0 0 0 0 0 0 0 0 0 0 0 0 0 0 0 0 0 0 0 5 8 0 0 0 0 0 0 0 0 0 0 0 0 0 3 22 13 92 198 836 1009 986 1476 1656 1676 1767 1744 1742 1866 1771 1764 1249 1464 1738 1942 1972
0 0 0 0 0 0 0 0 0 0 0 0 0 0 0 0 0 0 0 0 0 0 0 0 0 10 0 29 3 4 17 16 12 8 0 0 0 0 0 0 0 0 0 0 0 0 106 3 0 0 0 0 0 0 0 0 0 0 0 0 0 0 0 0 0 0 0 0 2 144 141 496 1066 1366 1406 1495 1508 1539 1562 1460 1600 1403 1953 2020 1852 1865 1958 2061
0 0 25 0 0 0 0 0 0 0 0 0 0 0 0 0 0 0 0 0 0 0 0 0 1 0 26 22 6 21 13 2 0 2 0 2 13 0 0 0 0 25 3 18 0 1 0 69 12 0 0 0 0 0 0 0 0 0 0 0 0 0 0 0 0 6 0 0 31 55 6 192 1500 1076 1407 1376 1313 1303 1161 1177 1335 1652 1613 1720 1780 1904 1826 1595
0 0 0 0 0 0 0 0 0 0 0 0 0 0 0 0 0 0 0 0 0 0 0 0 5 15 8 28 9 8 2 2 0 0 10 8 13 0 0 0 0 16 144 179 693 92 7 1 16 0 1 0 0 2 4 9 2 0 0 0 0 0 0 0 0 2 0 0 1 19 0 1219 1392 1212 1308 1308 1066 1236 1107 1220 1239 1531 1556 1662 1750 1648 1622 1630
0 0 0 0 0 0 0 0 0 0 0 0 0 0 0 0 0 0 0 0 0 0 0 1 0 1 0 2 3 0 0 1 0 11 21 0 2 0 0 0 0 2 307 352 172 80 75 100 267 125 9 1 19 11 0 0 0 0 0 0 0 0 7 3 0 0 0 19 179 133 62 1075 1740 1169 1473 1366 1210 1073 1061 1184 1229 1193 1137 1265 1520 1617 1271 1381
0 0 0 0 0 0 0 0 0 0 0 0 0 0 0 0 0 0 0 0 0 0 0 0 0 2 0 0 0 8 4 0 1 41 62 13 4 0 0 0 0 7 80 403 14 24 72 0 10 53 4 0 0 0 0 0 1 0 0 1 0 2 27 20 0 0 13 0 98 308 658 286 917 1371 1446 1473 1308 1116 978 1162 1235 1126 1093 1045 1050 1110 1374 1501
5 35 16 126 150 0 0 0 0 0 0 0 0 0 0 0 0 0 0 0 0 0 1 0 0 0 0 22 27 58 95 109 122 85 35 36 49 0 0 0 0 0 24 5 3 35 26 0 3 10 0 0 0 0 0 0 0 0 0 1 12 33 41 7 2 84 273 48 112 962 1066 468 324 1334 1547 1511 1460 1192 991 1285 1023 942 1046 1067 1112 1127 1127 1205
211 137 240 111 305 0 173 4 0 0 0 0 0 0 0 0 0 0 0 0 0 0 0 9 0 0 4 37 114 156 338 164 112 167 223 87 80 81 4 3 0 0 0 5 8 36 76 4 84 26 9 1 5 0 0 0 0 0 0 0 2 13 179 106 120 203 456 1079 514 290 1024 732 1252 1520 1543 1536 1294 1016 1003 1037 956 927 1018 1025 1187 1123 1121 1199
250 151 25 99 115 8 1 0 0 0 0 80 0 0 0 0 0 0 0 0 0 0 0 0 0 0 0 30 142 132 140 210 199 172 94 170 78 105 52 24 34 15 0 0 3 46 95 108 70 25 3 1 0 5 1 2 0 0 0 0 0 50 171 147 177 419 129 325 625 374 911 1557 1635 1722 1574 1395 1139 1030 957 920 1062 1024 1006 1033 1220 1266 1274 1371
286 343 521 399 0 20 0 0 0 0 0 0 0 0 0 0 0 0 0 0 0 0 0 0 0 0 0 1 5 5 1 82 81 30 20 34 127 16 118 69 1 63 9 0 1 9 0 13 0 30 0 0 0 0 1 2 6 3 0 3 32 1 159 246 458 595 449 781 865 952 1034 1197 1701 1618 1386 1110 1096 1018 1231 1242 1148 1086 1037 1078 1153 1154 1345 1376
423 174 489 748 0 25 0 0 0 0 0 0 4 0 0 0 0 0 0 0 0 0 0 0 0 0 0 6 12 0 0 0 0 0 0 0 0 0 0 0 0 24 60 31 24 1 12 6 0 0 0 0 0 0 0 1 3 3 63 120 363 182 93 277 523 784 926 739 536 481 831 973 1572 1431 1245 1082 1147 1077 928 1044 1197 1170 1289 1117 1272 1267 1300 1200
Wind_Speed
nan nan nan nan nan nan nan nan nan nan nan nan nan nan nan nan nan nan nan nan nan nan nan nan nan nan nan nan nan nan nan nan nan nan nan nan nan nan nan nan nan nan 6 5 nan nan nan nan nan 2 1 4 1 4 1 6 5 3 9 17 16 15 17 13 13 17 10 3 2 3 3 4 3 2 2 2 4 7 6 8 7 10 9 11 15 9 3 4
nan nan nan nan nan nan nan nan nan nan nan nan nan nan nan nan nan nan nan nan nan nan nan nan nan nan nan nan nan nan nan nan nan nan nan nan nan nan nan nan nan nan 5 nan nan nan nan nan 1 1 2 5 3 2 2 2 5 4 12 20 19 21 20 19 15 14 7 5 4 2 1 2 4 3 1 2 4 4 5 6 6 8 10 14 16 10 3 5
nan nan nan nan nan nan nan nan nan nan nan nan nan nan nan nan nan nan nan nan nan nan nan nan nan nan nan nan nan nan nan nan nan nan nan nan nan nan nan nan nan nan nan nan nan nan nan nan 3 2 3 5 2 3 6 3 11 4 12 19 19 21 17 13 14 13 11 6 5 4 1 1 6 2 2 2 2 2 3 5 5 3 5 10 15 9 1 3
nan nan nan nan nan nan nan nan nan nan nan nan nan nan nan nan nan nan nan nan nan nan nan nan nan nan nan nan nan nan nan nan nan nan nan nan nan nan nan nan nan 7 nan nan nan nan nan nan 3 5 6 9 5 6 6 2 12 6 13 15 18 21 15 16 12 13 8 4 6 5 2 2 3 1 2 2 2 3 5 5 4 2 4 9 11 8 0 2
nan nan nan nan nan nan nan nan nan nan nan nan nan nan nan nan nan nan nan nan nan nan nan nan nan nan nan nan nan nan nan nan nan nan 30 nan nan nan nan nan nan nan nan nan nan nan nan nan 4 6 9 7 6 4 8 4 10 11 9 11 15 15 16 13 12 10 6 6 8 5 0 2 1 2 1 2 5 3 4 3 4 3 4 7 10 7 1 2
nan nan nan nan nan nan nan nan nan nan nan nan nan nan nan nan nan nan nan nan nan nan nan nan nan nan nan nan nan nan nan nan nan nan 31 nan nan nan nan nan 10 nan nan nan nan nan nan nan 5 6 8 11 6 9 7 9 6 10 4 9 16 17 15 13 12 10 8 7 7 3 5 2 3 1 2 5 9 5 3 5 6 3 4 6 9 7 0 2
nan nan nan nan nan nan nan nan nan nan nan nan nan nan nan nan nan nan nan nan nan nan nan nan nan nan nan nan nan nan nan nan nan nan 28 nan nan nan nan nan 12 nan nan nan nan nan nan nan 7 8 9 13 10 11 8 8 6 10 5 7 12 14 14 12 11 8 8 7 7 9 7 1 1 1 4 7 8 5 3 5 5 5 5 6 8 5 1 1
nan nan nan nan nan nan nan nan nan nan nan nan nan nan nan nan nan nan nan nan nan nan nan nan nan nan nan nan nan nan nan nan nan 32 29 nan nan nan nan nan nan nan nan nan nan nan nan nan 8 12 11 12 15 11 11 10 nan 7 4 4 7 12 14 12 9 8 8 8 11 8 4 4 1 4 4 7 5 2 3 5 5 4 5 5 7 6 2 1
nan nan nan nan nan nan nan nan nan nan nan nan nan nan nan nan nan nan nan nan nan nan nan nan nan nan nan nan nan nan nan nan nan nan nan nan nan nan nan nan nan nan nan nan nan nan nan nan 11 12 16 14 14 13 10 nan 5 nan 7 3 4 8 12 12 11 10 9 10 8 4 5 5 7 4 6 6 4 2 3 4 3 3 4 5 7 6 3 2
nan nan nan nan nan nan nan nan nan nan nan nan nan nan nan nan nan nan nan nan nan nan nan nan nan nan nan nan nan nan nan nan nan nan nan nan nan nan nan nan nan nan nan nan nan nan nan nan 13 14 21 16 nan nan 17 nan 12 6 5 4 3 6 12 12 10 12 10 8 7 7 6 7 5 4 6 5 4 2 3 3 3 1 3 5 6 6 4 1
nan nan nan nan nan nan nan nan nan nan nan nan nan nan nan nan nan nan nan nan nan nan nan nan nan nan nan nan nan nan nan nan nan nan nan nan nan nan nan nan nan nan nan nan nan nan nan nan 14 16 17 nan nan 14 nan nan 12 7 7 6 3 3 10 11 11 11 10 9 5 7 8 6 4 12 4 2 1 1 3 2 1 0 2 3 6 6 5 1
nan nan nan nan nan nan nan nan nan nan nan nan nan nan nan nan nan nan nan nan nan nan nan nan nan nan nan nan nan nan nan nan nan nan nan nan nan nan nan nan nan nan nan nan nan nan nan nan 14 13 21 nan nan nan nan 15 10 9 4 6 5 3 6 6 10 11 10 13 5 9 13 6 3 8 5 2 1 1 3 3 0 0 2 3 5 7 5 1
nan nan nan nan nan nan nan nan nan nan nan nan nan nan nan nan nan nan nan nan nan nan nan nan nan nan nan nan nan nan nan nan nan nan nan nan nan nan nan nan nan nan nan nan nan nan nan nan 16 12 nan nan nan nan 20 16 12 8 7 9 5 4 6 11 18 20 16 15 9 4 9 10 9 8 2 2 1 2 3 4 2 2 2 3 4 7 4 2
nan nan nan nan nan nan nan nan nan nan nan nan nan nan nan nan nan nan nan nan nan nan nan nan nan nan nan nan nan nan nan nan nan nan nan nan nan nan nan nan nan nan nan nan nan nan nan nan nan 18 nan nan nan nan nan nan 13 9 11 9 10 7 8 8 10 9 12 15 11 14 11 10 11 7 3 1 0 2 3 4 3 2 3 3 4 6 4 3
nan nan nan nan nan nan nan nan nan nan nan nan nan nan nan nan nan nan nan nan nan nan nan nan nan nan nan nan nan nan nan nan nan nan nan nan nan nan nan nan nan nan nan nan nan nan nan nan 22 19 nan nan nan nan nan nan 9 12 11 9 14 6 10 12 8 5 11 9 9 13 15 12 12 9 3 2 0 2 3 4 3 2 3 2 4 nan 4 3
nan nan nan nan nan nan nan nan nan nan nan nan nan nan nan nan nan nan nan nan nan nan nan nan nan nan nan nan nan nan nan nan nan nan nan nan nan nan nan nan nan nan nan nan nan nan nan nan nan 21 nan nan nan nan nan 13 12 13 12 nan 13 14 13 10 6 6 8 8 8 11 19 17 15 9 5 2 1 1 3 3 3 2 1 2 4 nan 4 4
nan nan nan nan nan nan nan nan nan nan nan nan nan nan nan nan nan nan nan nan nan nan nan nan nan nan nan nan nan nan nan nan nan nan nan nan nan nan nan nan nan nan nan nan nan nan nan nan nan 25 nan nan nan nan nan 14 14 15 13 12 20 18 12 10 13 7 8 5 7 8 20 16 13 9 6 2 2 2 3 3 3 4 4 3 4 nan 5 6
nan nan nan nan nan nan nan nan nan nan nan nan nan nan nan nan nan nan nan nan nan nan nan nan nan nan nan nan nan nan nan nan nan nan nan nan nan nan nan nan nan nan nan nan nan nan nan nan nan 27 nan nan nan nan nan 15 19 18 16 13 15 19 10 10 6 4 5 7 7 2 13 15 13 10 5 2 2 3 4 4 4 4 4 4 4 5 5 6
nan nan nan nan nan nan nan nan nan nan nan nan nan nan nan nan nan nan nan nan nan nan nan nan nan nan nan nan nan nan nan nan nan nan nan nan nan nan nan nan nan nan nan nan nan nan nan nan nan nan nan nan nan nan nan nan 18 15 19 20 21 21 14 14 14 12 7 5 9 5 11 17 14 11 6 3 2 3 3 3 5 5 5 5 5 5 6 6
nan nan nan nan nan nan nan nan nan nan nan nan nan nan nan nan nan nan nan nan nan nan nan nan nan nan nan nan nan nan nan nan nan nan nan nan nan nan nan nan nan nan nan nan nan nan nan nan nan nan nan nan nan nan nan nan nan 21 26 19 20 nan 15 23 14 10 13 7 3 8 10 19 17 11 8 4 2 3 2 0 2 3 4 5 5 5 4 5
nan nan nan nan nan nan nan nan nan nan nan nan nan nan nan nan nan nan nan nan nan nan nan nan nan nan nan nan nan nan nan nan nan nan nan nan nan nan nan nan nan nan nan nan nan nan nan nan nan nan nan nan nan nan nan nan nan 16 17 15 19 12 16 17 16 8 12 1 7 4 2 11 14 10 8 5 2 3 3 1 0 1 3 6 5 4 4 6
nan nan nan nan nan nan nan nan nan nan nan nan nan nan nan nan nan nan nan nan nan nan nan nan nan nan nan nan nan nan nan nan nan nan nan nan nan nan nan nan nan nan nan nan nan nan nan nan nan nan nan nan nan nan nan nan nan 17 17 17 18 17 25 20 17 11 9 9 8 3 4 6 5 13 12 5 3 5 4 3 2 2 3 6 6 4 5 5
nan nan nan nan nan nan nan nan nan nan nan nan nan nan nan nan nan nan nan nan nan nan nan nan nan nan nan nan nan nan nan nan nan nan nan nan nan nan nan nan nan nan nan nan nan nan nan nan nan nan nan nan nan nan nan nan nan nan 18 17 17 23 12 16 15 12 15 11 8 5 6 4 8 11 11 8 5 7 5 4 4 4 4 5 5 5 5 4
nan nan nan nan nan nan nan nan nan nan nan nan nan nan nan nan nan nan nan nan nan nan nan nan nan nan nan nan nan nan nan nan nan nan nan nan nan nan nan nan nan nan nan nan nan nan nan nan nan nan nan nan nan nan nan nan nan nan nan nan nan 19 14 21 19 14 14 11 11 7 8 7 6 8 9 8 6 6 4 3 3 4 5 6 6 6 5 5
nan nan nan nan nan nan nan nan nan nan nan nan nan nan nan nan nan nan nan nan nan nan nan nan nan nan nan nan nan nan nan nan nan nan nan nan nan nan nan nan nan nan nan nan nan nan nan nan nan nan nan nan nan nan nan nan nan nan nan nan nan 20 18 20 22 16 14 12 9 12 nan 9 7 5 7 13 11 6 6 4 1 3 3 4 3 3 4 6
nan nan nan nan nan nan nan nan nan nan nan nan nan nan nan nan nan nan nan nan nan nan nan nan nan nan nan nan nan nan nan nan nan nan nan nan nan nan nan nan nan nan nan nan nan nan nan nan nan nan nan nan nan nan nan nan nan nan nan nan nan 23 21 19 18 20 15 13 14 8 12 15 12 5 8 10 9 7 6 3 2 4 3 2 3 4 4 5
nan nan nan nan nan nan nan nan nan nan nan nan nan nan nan nan nan nan nan nan nan nan nan nan nan nan nan nan nan nan nan nan nan nan nan nan nan nan nan nan nan nan nan nan nan nan nan nan nan nan nan nan nan nan nan nan nan nan nan nan nan nan 21 21 20 17 17 25 17 9 16 nan 12 8 10 4 8 10 6 2 2 4 4 3 3 5 5 nan
nan nan nan nan nan nan nan nan nan nan nan nan nan nan nan nan nan nan nan nan nan nan nan nan nan nan nan nan nan nan nan nan nan nan nan nan nan nan nan nan nan nan nan nan nan nan nan nan nan nan nan nan nan nan nan nan nan nan nan nan nan nan 25 23 22 20 24 21 16 13 10 10 11 18 14 11 7 5 1 3 4 5 4 4 4 4 5 nan
nan nan nan nan nan nan nan nan nan nan nan nan nan nan nan nan nan nan nan nan nan nan nan nan nan nan nan nan nan nan nan nan nan nan nan nan nan nan nan nan nan nan nan nan nan nan nan nan nan nan nan nan nan nan nan nan nan nan nan nan nan nan nan 26 24 25 18 15 15 14 13 15 15 17 14 12 7 5 6 6 7 6 5 5 4 5 6 nan
nan nan nan nan nan nan nan nan nan nan nan nan nan nan nan nan nan nan nan nan nan nan nan nan nan nan nan nan nan nan nan nan nan nan nan nan nan nan nan nan nan nan nan nan nan nan nan nan nan nan nan nan nan nan nan nan nan nan nan nan nan nan nan nan 30 30 26 17 15 16 15 14 15 16 11 11 8 8 9 8 10 9 7 6 5 5 7 6
nan nan nan nan nan nan nan nan nan nan nan nan nan nan nan nan nan nan nan nan nan nan nan nan nan nan nan nan nan nan nan nan nan nan nan nan nan nan nan nan nan nan nan nan nan nan nan nan nan nan nan nan nan nan nan nan nan nan nan nan nan nan nan nan nan 31 23 nan nan 23 18 16 16 17 14 14 17 11 11 9 9 10 9 8 6 5 6 7
nan nan nan nan nan nan nan nan nan nan nan nan nan nan nan nan nan nan nan nan nan nan nan nan nan nan nan nan nan nan nan nan nan nan nan nan nan nan nan nan nan nan nan nan nan nan nan nan nan nan nan nan nan nan nan nan nan nan nan nan nan nan nan nan nan nan nan 23 28 24 20 20 17 22 18 18 17 13 12 12 9 10 10 10 8 6 7 9
nan nan nan nan nan nan nan nan nan nan nan nan nan nan nan nan nan nan nan nan nan nan nan nan nan nan nan nan nan nan nan nan nan nan nan nan nan nan nan nan nan nan nan nan nan nan nan nan nan nan nan nan nan nan nan nan nan nan nan nan nan nan nan nan nan nan 26 nan 24 22 26 19 27 22 24 17 15 14 11 11 10 11 12 12 11 9 9 9
nan nan nan nan nan nan nan nan nan nan nan nan nan nan nan nan nan nan nan nan nan nan nan nan nan nan nan nan nan nan nan nan nan nan nan nan nan nan nan nan nan nan nan nan nan nan nan nan nan nan nan nan nan nan nan nan nan nan nan nan nan nan nan nan nan nan nan 26 28 31 24 24 17 27 25 26 21 18 16 12 11 11 13 15 15 13 11 10
nan nan nan nan nan nan nan nan nan nan nan nan nan nan nan nan nan nan nan nan nan nan nan nan nan nan nan nan nan nan nan nan nan nan nan nan nan nan nan nan nan nan nan nan nan nan nan nan nan nan nan nan nan nan nan nan nan nan nan nan nan nan nan 28 32 31 31 25 31 28 23 27 25 21 25 22 21 18 19 17 14 12 13 17 20 17 14 13
nan nan nan nan nan nan nan nan nan nan nan nan nan nan nan nan nan nan nan nan nan nan nan nan nan nan nan nan nan nan nan nan nan nan nan nan nan nan nan nan nan nan nan nan nan nan nan nan nan nan nan nan nan nan nan nan nan nan nan nan nan nan nan 32 32 33 nan nan 29 33 24 23 27 18 20 21 21 18 17 19 17 17 17 21 24 19 16 14
nan nan nan nan nan nan nan nan nan nan nan nan nan nan nan nan nan nan nan nan nan nan nan nan nan nan nan nan nan nan nan nan nan nan nan nan nan nan nan nan nan nan nan nan nan nan nan nan nan nan nan nan nan nan nan nan nan nan nan nan nan nan nan 35 30 31 nan nan 29 30 28 23 19 23 19 19 18 19 16 17 18 20 18 16 14 11 9 10
nan nan nan nan nan nan nan nan nan nan nan nan nan nan nan nan nan nan nan nan nan nan nan nan nan nan nan nan nan nan nan nan nan nan nan nan nan nan nan nan nan nan nan nan nan nan nan nan nan nan nan nan nan nan nan nan nan nan nan nan nan nan nan 31 nan 25 26 nan nan 30 26 nan 19 24 22 17 17 18 17 17 16 18 15 13 13 14 13 12
nan nan nan nan nan nan nan nan nan nan nan nan nan nan nan nan nan nan nan nan nan nan nan nan nan nan nan nan nan nan nan nan nan nan nan nan nan nan nan nan nan nan nan nan nan nan nan nan nan nan nan nan nan nan nan nan nan nan nan nan nan nan nan nan nan nan 28 nan nan 25 24 21 21 27 16 19 20 22 20 17 15 17 16 16 17 15 16 17
nan nan nan nan nan nan nan nan nan nan nan nan nan nan nan nan nan nan nan nan nan nan nan nan nan nan nan nan nan nan nan nan nan nan nan nan nan nan nan nan nan nan nan nan nan nan nan nan nan nan nan nan nan nan nan nan nan nan nan nan nan nan nan nan nan nan nan 26 nan 25 23 21 33 33 28 25 25 25 23 20 17 17 17 17 18 17 19 21
nan nan nan nan nan nan nan nan nan nan nan nan nan nan nan nan nan nan nan nan nan nan nan nan nan nan nan nan nan nan nan nan nan nan nan nan nan nan nan nan nan nan nan nan nan nan nan nan nan nan nan nan nan nan nan nan nan nan nan nan nan nan nan nan nan nan nan nan nan 25 22 34 35 28 28 29 29 28 27 23 20 19 19 19 20 19 19 19
nan nan nan nan nan nan nan nan nan nan nan nan nan nan nan nan nan nan nan nan nan nan nan nan nan nan nan nan nan nan nan nan nan nan nan nan nan nan nan nan nan nan nan nan nan nan nan nan nan nan nan nan nan nan nan nan nan nan nan nan nan nan nan nan nan nan nan nan nan nan 27 33 34 25 25 29 28 28 27 25 22 22 21 19 19 18 18 19
nan nan nan nan nan nan nan nan nan nan nan nan nan nan nan nan nan nan nan nan nan nan nan nan nan nan nan nan nan nan nan nan nan nan nan nan nan nan nan nan nan nan nan nan nan nan 27 nan nan nan nan nan nan nan nan nan nan nan nan nan nan nan nan nan nan nan nan nan nan 30 26 34 31 26 24 28 29 28 28 25 23 22 25 24 24 20 20 20
nan nan nan nan nan nan nan nan nan nan nan nan nan nan nan nan nan nan nan nan nan nan nan nan nan nan nan nan nan nan nan nan nan nan nan nan nan nan nan nan nan nan nan nan nan nan nan nan nan nan nan nan nan nan nan nan nan nan nan nan nan nan nan nan nan nan nan nan nan nan nan 31 33 25 26 25 27 26 25 25 24 22 22 23 23 22 20 18
nan nan nan nan nan nan nan nan nan nan nan nan nan nan nan nan nan nan nan nan nan nan nan nan nan nan nan nan nan nan nan nan nan nan nan nan nan nan nan nan nan nan 17 22 22 nan nan nan nan nan nan nan nan nan nan nan nan nan nan nan nan nan nan nan nan nan nan nan nan nan nan 37 34 26 25 24 26 25 25 27 27 26 24 23 22 21 20 18
nan nan nan nan nan nan nan nan nan nan nan nan nan nan nan nan nan nan nan nan nan nan nan nan nan nan nan nan nan nan nan nan nan nan nan nan nan nan nan nan nan nan 17 18 18 nan nan nan 30 30 nan nan nan nan nan nan nan nan nan nan nan nan nan nan nan nan nan nan 29 27 nan 34 29 26 25 24 24 24 25 25 26 29 28 28 26 23 20 19
nan nan nan nan nan nan nan nan nan nan nan nan nan nan nan nan nan nan nan nan nan nan nan nan nan nan nan nan nan nan nan nan nan nan nan nan nan nan nan nan nan nan nan 10 nan nan nan nan nan nan nan nan nan nan nan nan nan nan nan nan nan nan nan nan nan nan nan nan nan 31 33 27 28 26 25 24 24 24 25 27 31 32 33 31 27 21 20 19
nan nan nan 9 6 nan nan nan nan nan nan nan nan nan nan nan nan nan nan nan nan nan nan nan nan nan nan nan nan nan nan 17 17 nan nan nan nan nan nan nan nan nan nan nan nan nan nan nan nan nan nan nan nan nan nan nan nan nan nan nan nan nan nan nan nan nan 38 nan 31 38 31 27 30 32 31 28 26 25 26 29 30 30 30 30 27 22 19 19
6 10 9 7 6 nan 12 nan nan nan nan nan nan nan nan nan nan nan nan nan nan nan nan nan nan nan nan nan 8 12 12 9 17 19 20 nan nan nan nan nan nan nan nan nan nan nan nan nan nan nan nan nan nan nan nan nan nan nan nan nan nan nan 34 33 33 37 37 40 37 31 28 25 34 38 37 36 32 29 28 27 26 27 28 29 27 22 20 23
11 7 nan nan 10 nan nan nan nan nan nan nan nan nan nan nan nan nan nan nan nan nan nan nan nan nan nan nan 9 11 15 19 18 16 nan 15 nan 19 nan nan nan nan nan nan nan nan nan 24 nan nan nan nan nan nan nan nan nan nan nan nan nan nan 37 36 36 38 37 38 42 37 32 30 37 38 38 40 36 33 31 25 24 25 28 29 27 23 23 25
10 9 8 7 nan nan nan nan nan nan nan nan nan nan nan nan nan nan nan nan nan nan nan nan nan nan nan nan nan nan nan nan nan nan nan nan 17 nan 15 nan nan nan nan nan nan nan nan nan nan nan nan nan nan nan nan nan nan nan nan nan nan nan 36 40 37 40 37 39 40 38 36 38 42 37 38 35 33 32 31 28 26 24 25 28 28 26 28 31
7 9 6 6 nan nan nan nan nan nan nan nan nan nan nan nan nan nan nan nan nan nan nan nan nan nan nan nan nan nan nan nan nan nan nan nan nan nan nan nan nan nan nan nan nan nan nan nan nan nan nan nan nan nan nan nan nan nan nan 44 42 41 nan 36 39 40 41 38 33 34 45 41 41 40 37 34 31 31 30 28 27 24 23 26 27 27 29 31
Wind_Direction
nan nan nan nan nan nan nan nan nan nan nan nan nan nan nan nan nan nan nan nan nan nan nan nan nan nan nan nan nan nan nan nan nan nan nan nan nan nan nan nan nan nan 253 257 nan nan nan nan nan 234 115 88 89 74 342 48 55 41 171 166 163 180 172 178 167 160 189 153 79 46 35 338 347 47 170 161 166 172 153 160 178 200 217 247 259 267 306 2
nan nan nan nan nan nan nan nan nan nan nan nan nan nan nan nan nan nan nan nan nan nan nan nan nan nan nan nan nan nan nan nan nan nan nan nan nan nan nan nan nan nan 283 nan nan nan nan nan 278 29 145 106 213 170 37 53 38 112 184 167 175 181 149 158 182 175 168 163 159 178 47 353 299 323 66 151 194 181 167 166 193 228 242 262 270 275 331 23
nan nan nan nan nan nan nan nan nan nan nan nan nan nan nan nan nan nan nan nan nan nan nan nan nan nan nan nan nan nan nan nan nan nan nan nan nan nan nan nan nan nan nan nan nan nan nan nan 276 86 139 145 151 203 87 37 65 116 163 171 169 168 177 173 188 174 173 203 188 184 141 249 306 330 71 131 226 130 159 192 200 209 277 281 278 277 339 28
nan nan nan nan nan nan nan nan nan nan nan nan nan nan nan nan nan nan nan nan nan nan nan nan nan nan nan nan nan nan nan nan nan nan nan nan nan nan nan nan nan 309 nan nan nan nan nan nan 224 123 180 142 209 149 87 86 88 119 147 156 159 165 172 187 192 181 206 215 212 191 195 268 347 350 63 269 262 151 172 191 187 184 288 285 278 270 317 34
nan nan nan nan nan nan nan nan nan nan nan nan nan nan nan nan nan nan nan nan nan nan nan nan nan nan nan nan nan nan nan nan nan nan 214 nan nan nan nan nan nan nan nan nan nan nan nan nan 218 145 160 176 175 145 123 116 107 100 158 152 163 186 177 173 187 189 214 229 232 224 220 236 220 56 346 14 172 169 175 210 218 219 261 280 277 262 165 20
nan nan nan nan nan nan nan nan nan nan nan nan nan nan nan nan nan nan nan nan nan nan nan nan nan nan nan nan nan nan nan nan nan nan 212 nan nan nan nan nan 267 nan nan nan nan nan nan nan 191 173 176 161 190 141 212 124 110 108 167 169 177 177 173 181 191 192 209 228 245 266 239 235 85 95 56 145 160 202 237 227 249 239 266 254 250 255 248 31
nan nan nan nan nan nan nan nan nan nan nan nan nan nan nan nan nan nan nan nan nan nan nan nan nan nan nan nan nan nan nan nan nan nan 229 nan nan nan nan nan 252 nan nan nan nan nan nan nan 172 184 178 178 192 153 158 143 118 124 159 178 183 177 190 179 199 201 208 229 228 229 266 257 222 316 135 161 174 208 253 253 255 253 262 264 257 253 255 53
nan nan nan nan nan nan nan nan nan nan nan nan nan nan nan nan nan nan nan nan nan nan nan nan nan nan nan nan nan nan nan nan nan 216 229 nan nan nan nan nan nan nan nan nan nan nan nan nan 189 189 178 182 204 151 175 127 nan 114 136 185 187 192 189 198 206 213 229 224 220 238 271 254 175 202 137 173 168 193 260 262 276 274 274 259 251 253 225 176
nan nan nan nan nan nan nan nan nan nan nan nan nan nan nan nan nan nan nan nan nan nan nan nan nan nan nan nan nan nan nan nan nan nan nan nan nan nan nan nan nan nan nan nan nan nan nan nan 187 174 197 193 176 164 159 nan 148 nan 175 159 197 209 208 207 217 229 241 217 231 237 240 236 226 243 181 168 166 194 252 273 306 298 283 264 257 258 241 207
nan nan nan nan nan nan nan nan nan nan nan nan nan nan nan nan nan nan nan nan nan nan nan nan nan nan nan nan nan nan nan nan nan nan nan nan nan nan nan nan nan nan nan nan nan nan nan nan 188 206 179 196 nan nan 173 nan 181 144 189 181 187 228 215 210 226 238 237 240 259 242 240 249 248 124 168 147 173 215 253 277 325 336 274 256 253 261 250 268
nan nan nan nan nan nan nan nan nan nan nan nan nan nan nan nan nan nan nan nan nan nan nan nan nan nan nan nan nan nan nan nan nan nan nan nan nan nan nan nan nan nan nan nan nan nan nan nan 216 193 179 nan nan 187 nan nan 177 186 208 222 211 216 207 209 228 239 237 243 242 242 240 248 224 129 189 158 188 155 257 253 339 335 223 227 259 261 252 244
nan nan nan nan nan nan nan nan nan nan nan nan nan nan nan nan nan nan nan nan nan nan nan nan nan nan nan nan nan nan nan nan nan nan nan nan nan nan nan nan nan nan nan nan nan nan nan nan 215 187 198 nan nan nan nan 181 187 207 188 214 209 216 213 220 238 234 227 228 233 243 235 225 170 211 253 281 208 200 231 231 267 239 190 221 240 246 244 220
nan nan nan nan nan nan nan nan nan nan nan nan nan nan nan nan nan nan nan nan nan nan nan nan nan nan nan nan nan nan nan nan nan nan nan nan nan nan nan nan nan nan nan nan nan nan nan nan 203 193 nan nan nan nan 205 182 197 195 174 198 216 195 214 233 202 204 214 217 213 234 217 210 215 232 257 286 233 222 211 201 194 163 160 194 226 238 252 243
nan nan nan nan nan nan nan nan nan nan nan nan nan nan nan nan nan nan nan nan nan nan nan nan nan nan nan nan nan nan nan nan nan nan nan nan nan nan nan nan nan nan nan nan nan nan nan nan nan 190 nan nan nan nan nan nan 181 178 215 190 206 183 227 258 222 213 232 205 183 205 214 217 227 234 248 237 276 258 207 189 192 167 161 187 208 235 242 253
nan nan nan nan nan nan nan nan nan nan nan nan nan nan nan nan nan nan nan nan nan nan nan nan nan nan nan nan nan nan nan nan nan nan nan nan nan nan nan nan nan nan nan nan nan nan nan nan 213 206 nan nan nan nan nan nan 198 192 208 199 232 231 233 239 202 210 221 213 203 193 212 214 219 241 239 191 168 153 204 197 184 183 173 185 201 nan 245 231
nan nan nan nan nan nan nan nan nan nan nan nan nan nan nan nan nan nan nan nan nan nan nan nan nan nan nan nan nan nan nan nan nan nan nan nan nan nan nan nan nan nan nan nan nan nan nan nan nan 214 nan nan nan nan nan 206 210 202 206 nan 227 222 242 249 209 181 213 252 232 199 207 214 205 225 238 174 63 125 186 230 183 193 208 186 187 nan 213 227
nan nan nan nan nan nan nan nan nan nan nan nan nan nan nan nan nan nan nan nan nan nan nan nan nan nan nan nan nan nan nan nan nan nan nan nan nan nan nan nan nan nan nan nan nan nan nan nan nan 220 nan nan nan nan nan 208 205 209 222 197 214 237 239 216 253 199 252 267 289 202 186 214 222 225 235 185 103 133 174 240 218 190 178 176 171 nan 206 211
nan nan nan nan nan nan nan nan nan nan nan nan nan nan nan nan nan nan nan nan nan nan nan nan nan nan nan nan nan nan nan nan nan nan nan nan nan nan nan nan nan nan nan nan nan nan nan nan nan 225 nan nan nan nan nan 210 206 206 223 222 222 241 255 256 250 265 282 265 277 253 195 217 228 222 225 194 136 151 163 216 218 197 179 163 168 182 212 210
nan nan nan nan nan nan nan nan nan nan nan nan nan nan nan nan nan nan nan nan nan nan nan nan nan nan nan nan nan nan nan nan nan nan nan nan nan nan nan nan nan nan nan nan nan nan nan nan nan nan nan nan nan nan nan nan 208 209 211 201 230 225 224 253 227 272 290 320 295 298 247 237 233 218 211 200 159 146 181 197 215 200 177 164 177 189 206 218
nan nan nan nan nan nan nan nan nan nan nan nan nan nan nan nan nan nan nan nan nan nan nan nan nan nan nan nan nan nan nan nan nan nan nan nan nan nan nan nan nan nan nan nan nan nan nan nan nan nan nan nan nan nan nan nan nan 222 229 200 223 nan 245 244 248 254 243 242 292 319 253 222 214 211 211 209 185 139 142 93 216 215 178 174 187 196 211 238
nan nan nan nan nan nan nan nan nan nan nan nan nan nan nan nan nan nan nan nan nan nan nan nan nan nan nan nan nan nan nan nan nan nan nan nan nan nan nan nan nan nan nan nan nan nan nan nan nan nan nan nan nan nan nan nan nan 223 235 220 229 212 244 236 260 283 288 354 260 319 79 185 199 202 218 222 191 117 112 140 157 240 187 191 197 206 214 235
nan nan nan nan nan nan nan nan nan nan nan nan nan nan nan nan nan nan nan nan nan nan nan nan nan nan nan nan nan nan nan nan nan nan nan nan nan nan nan nan nan nan nan nan nan nan nan nan nan nan nan nan nan nan nan nan nan 224 227 230 223 230 227 233 238 257 260 221 234 329 94 145 181 220 204 220 189 165 135 173 168 222 205 198 206 202 220 231
nan nan nan nan nan nan nan nan nan nan nan nan nan nan nan nan nan nan nan nan nan nan nan nan nan nan nan nan nan nan nan nan nan nan nan nan nan nan nan nan nan nan nan nan nan nan nan nan nan nan nan nan nan nan nan nan nan nan 223 222 224 235 232 242 242 249 237 225 214 171 158 196 247 231 201 193 206 180 160 166 175 195 206 216 207 211 212 252
nan nan nan nan nan nan nan nan nan nan nan nan nan nan nan nan nan nan nan nan nan nan nan nan nan nan nan nan nan nan nan nan nan nan nan nan nan nan nan nan nan nan nan nan nan nan nan nan nan nan nan nan nan nan nan nan nan nan nan nan nan 233 217 200 245 241 237 217 220 229 180 213 233 254 222 204 197 199 198 180 174 194 201 213 200 199 193 231
nan nan nan nan nan nan nan nan nan nan nan nan nan nan nan nan nan nan nan nan nan nan nan nan nan nan nan nan nan nan nan nan nan nan nan nan nan nan nan nan nan nan nan nan nan nan nan nan nan nan nan nan nan nan nan nan nan nan nan nan nan 225 220 230 246 246 229 227 208 237 nan 191 228 236 231 235 214 206 211 182 192 249 235 235 222 201 187 201
nan nan nan nan nan nan nan nan nan nan nan nan nan nan nan nan nan nan nan nan nan nan nan nan nan nan nan nan nan nan nan nan nan nan nan nan nan nan nan nan nan nan nan nan nan nan nan nan nan nan nan nan nan nan nan nan nan nan nan nan nan 221 226 235 242 234 224 206 230 220 194 204 209 229 259 240 224 212 215 179 221 274 268 257 216 208 204 200
nan nan nan nan nan nan nan nan nan nan nan nan nan nan nan nan nan nan nan nan nan nan nan nan nan nan nan nan nan nan nan nan nan nan nan nan nan nan nan nan nan nan nan nan nan nan nan nan nan nan nan nan nan nan nan nan nan nan nan nan nan nan 226 231 233 236 205 219 218 213 215 nan 200 227 273 269 229 210 195 219 246 263 291 286 234 224 217 nan
nan nan nan nan nan nan nan nan nan nan nan nan nan nan nan nan nan nan nan nan nan nan nan nan nan nan nan nan nan nan nan nan nan nan nan nan nan nan nan nan nan nan nan nan nan nan nan nan nan nan nan nan nan nan nan nan nan nan nan nan nan nan 224 229 222 226 210 193 217 222 241 218 194 231 278 289 258 239 254 293 292 281 287 294 273 248 234 nan
nan nan nan nan nan nan nan nan nan nan nan nan nan nan nan nan nan nan nan nan nan nan nan nan nan nan nan nan nan nan nan nan nan nan nan nan nan nan nan nan nan nan nan nan nan nan nan nan nan nan nan nan nan nan nan nan nan nan nan nan nan nan nan 223 225 232 225 211 204 225 233 218 196 236 239 268 272 304 296 300 294 287 287 282 271 266 265 nan
nan nan nan nan nan nan nan nan nan nan nan nan nan nan nan nan nan nan nan nan nan nan nan nan nan nan nan nan nan nan nan nan nan nan nan nan nan nan nan nan nan nan nan nan nan nan nan nan nan nan nan nan nan nan nan nan nan nan nan nan nan nan nan nan 226 223 221 209 213 223 235 216 219 230 231 243 241 257 270 267 263 270 268 272 271 283 275 270
nan nan nan nan nan nan nan nan nan nan nan nan nan nan nan nan nan nan nan nan nan nan nan nan nan nan nan nan nan nan nan nan nan nan nan nan nan nan nan nan nan nan nan nan nan nan nan nan nan nan nan nan nan nan nan nan nan nan nan nan nan nan nan nan nan 231 225 nan nan 219 229 226 208 237 214 234 227 249 255 262 265 269 272 267 270 274 282 271
nan nan nan nan nan nan nan nan nan nan nan nan nan nan nan nan nan nan nan nan nan nan nan nan nan nan nan nan nan nan nan nan nan nan nan nan nan nan nan nan nan nan nan nan nan nan nan nan nan nan nan nan nan nan nan nan nan nan nan nan nan nan nan nan nan nan nan 227 232 217 222 219 205 218 228 244 233 242 258 254 261 262 265 270 272 281 265 257
nan nan nan nan nan nan nan nan nan nan nan nan nan nan nan nan nan nan nan nan nan nan nan nan nan nan nan nan nan nan nan nan nan nan nan nan nan nan nan nan nan nan nan nan nan nan nan nan nan nan nan nan nan nan nan nan nan nan nan nan nan nan nan nan nan nan 229 nan 235 226 230 209 219 225 237 247 249 245 267 266 268 266 260 260 262 263 256 248
nan nan nan nan nan nan nan nan nan nan nan nan nan nan nan nan nan nan nan nan nan nan nan nan nan nan nan nan nan nan nan nan nan nan nan nan nan nan nan nan nan nan nan nan nan nan nan nan nan nan nan nan nan nan nan nan nan nan nan nan nan nan nan nan nan nan nan 232 247 246 236 226 228 232 231 237 241 254 258 266 271 275 265 259 258 262 264 255
nan nan nan nan nan nan nan nan nan nan nan nan nan nan nan nan nan nan nan nan nan nan nan nan nan nan nan nan nan nan nan nan nan nan nan nan nan nan nan nan nan nan nan nan nan nan nan nan nan nan nan nan nan nan nan nan nan nan nan nan nan nan nan 215 220 223 219 228 243 247 234 231 223 237 239 241 249 251 259 266 275 286 277 270 260 258 252 246
nan nan nan nan nan nan nan nan nan nan nan nan nan nan nan nan nan nan nan nan nan nan nan nan nan nan nan nan nan nan nan nan nan nan nan nan nan nan nan nan nan nan nan nan nan nan nan nan nan nan nan nan nan nan nan nan nan nan nan nan nan nan nan 218 218 226 nan nan 228 238 231 230 239 233 242 248 251 257 263 268 276 289 292 280 263 257 253 249
nan nan nan nan nan nan nan nan nan nan nan nan nan nan nan nan nan nan nan nan nan nan nan nan nan nan nan nan nan nan nan nan nan nan nan nan nan nan nan nan nan nan nan nan nan nan nan nan nan nan nan nan nan nan nan nan nan nan nan nan nan nan nan 219 221 232 nan nan 230 240 241 224 222 230 231 247 255 262 272 277 276 285 292 292 290 297 291 278
nan nan nan nan nan nan nan nan nan nan nan nan nan nan nan nan nan nan nan nan nan nan nan nan nan nan nan nan nan nan nan nan nan nan nan nan nan nan nan nan nan nan nan nan nan nan nan nan nan nan nan nan nan nan nan nan nan nan nan nan nan nan nan 229 nan 224 231 nan nan 239 237 nan 224 229 229 244 254 263 273 283 284 289 291 290 299 319 318 304
nan nan nan nan nan nan nan nan nan nan nan nan nan nan nan nan nan nan nan nan nan nan nan nan nan nan nan nan nan nan nan nan nan nan nan nan nan nan nan nan nan nan nan nan nan nan nan nan nan nan nan nan nan nan nan nan nan nan nan nan nan nan nan nan nan nan 223 nan nan 237 241 232 236 237 239 243 250 256 262 277 287 287 283 276 279 290 292 288
nan nan nan nan nan nan nan nan nan nan nan nan nan nan nan nan nan nan nan nan nan nan nan nan nan nan nan nan nan nan nan nan nan nan nan nan nan nan nan nan nan nan nan nan nan nan nan nan nan nan nan nan nan nan nan nan nan nan nan nan nan nan nan nan nan nan nan 221 nan 227 232 233 238 230 232 240 244 249 253 259 264 270 272 270 269 269 270 271
nan nan nan nan nan nan nan nan nan nan nan nan nan nan nan nan nan nan nan nan nan nan nan nan nan nan nan nan nan nan nan nan nan nan nan nan nan nan nan nan nan nan nan nan nan nan nan nan nan nan nan nan nan nan nan nan nan nan nan nan nan nan nan nan nan nan nan nan nan 227 222 234 230 228 232 234 235 240 243 247 251 261 265 264 261 263 266 265
nan nan nan nan nan nan nan nan nan nan nan nan nan nan nan nan nan nan nan nan nan nan nan nan nan nan nan nan nan nan nan nan nan nan nan nan nan nan nan nan nan nan nan nan nan nan nan nan nan nan nan nan nan nan nan nan nan nan nan nan nan nan nan nan nan nan nan nan nan nan 216 233 231 228 225 230 231 234 235 238 244 252 262 265 260 258 258 261
nan nan nan nan nan nan nan nan nan nan nan nan nan nan nan nan nan nan nan nan nan nan nan nan nan nan nan nan nan nan nan nan nan nan nan nan nan nan nan nan nan nan nan nan nan nan 211 nan nan nan nan nan nan nan nan nan nan nan nan nan nan nan nan nan nan nan nan nan nan 229 225 234 234 228 225 230 231 230 231 234 241 244 242 246 255 256 260 258
nan nan nan nan nan nan nan nan nan nan nan nan nan nan nan nan nan nan nan nan nan nan nan nan nan nan nan nan nan nan nan nan nan nan nan nan nan nan nan nan nan nan nan nan nan nan nan nan nan nan nan nan nan nan nan nan nan nan nan nan nan nan nan nan nan nan nan nan nan nan nan 239 235 229 229 230 232 232 234 236 240 243 243 245 248 245 246 255
nan nan nan nan nan nan nan nan nan nan nan nan nan nan nan nan nan nan nan nan nan nan nan nan nan nan nan nan nan nan nan nan nan nan nan nan nan nan nan nan nan nan 211 212 201 nan nan nan nan nan nan nan nan nan nan nan nan nan nan nan nan nan nan nan nan nan nan nan nan nan nan 237 242 234 236 233 232 231 232 238 238 239 243 245 247 251 249 247
nan nan nan nan nan nan nan nan nan nan nan nan nan nan nan nan nan nan nan nan nan nan nan nan nan nan nan nan nan nan nan nan nan nan nan nan nan nan nan nan nan nan 218 210 201 nan nan nan 211 207 nan nan nan nan nan nan nan nan nan nan nan nan nan nan nan nan nan nan 230 231 nan 236 241 243 240 238 234 234 235 236 238 242 239 233 229 236 243 243
nan nan nan nan nan nan nan nan nan nan nan nan nan nan nan nan nan nan nan nan nan nan nan nan nan nan nan nan nan nan nan nan nan nan nan nan nan nan nan nan nan nan nan 217 nan nan nan nan nan nan nan nan nan nan nan nan nan nan nan nan nan nan nan nan nan nan nan nan nan 230 237 230 236 245 244 241 235 232 232 234 234 237 237 229 221 219 227 236
nan nan nan 234 234 nan nan nan nan nan nan nan nan nan nan nan nan nan nan nan nan nan nan nan nan nan nan nan nan nan nan 237 230 nan nan nan nan nan nan nan nan nan nan nan nan nan nan nan nan nan nan nan nan nan nan nan nan nan nan nan nan nan nan nan nan nan 219 nan 220 230 234 233 230 241 249 248 242 236 236 238 244 246 236 224 215 213 218 227
268 274 257 253 261 nan 236 nan nan nan nan nan nan nan nan nan nan nan nan nan nan nan nan nan nan nan nan nan 221 249 226 234 248 236 229 nan nan nan nan nan nan nan nan nan nan nan nan nan nan nan nan nan nan nan nan nan nan nan nan nan nan nan 227 226 227 227 227 227 225 230 234 237 230 242 248 250 245 240 238 241 249 255 245 229 217 215 222 229
282 276 nan nan 265 nan nan nan nan nan nan nan nan nan nan nan nan nan nan nan nan nan nan nan nan nan nan nan 240 246 239 228 237 250 nan 231 nan 233 nan nan nan nan nan nan nan nan nan 227 nan nan nan nan nan nan nan nan nan nan nan nan nan nan 226 224 226 229 227 233 230 232 239 241 237 243 249 249 248 245 245 247 252 258 259 247 233 230 235 237
259 255 240 271 nan nan nan nan nan nan nan nan nan nan nan nan nan nan nan nan nan nan nan nan nan nan nan nan nan nan nan nan nan nan nan nan 237 nan 230 nan nan nan nan nan nan nan nan nan nan nan nan nan nan nan nan nan nan nan nan nan nan nan 220 220 223 224 223 230 233 235 241 243 243 243 249 250 251 251 249 250 253 257 263 257 248 247 247 244
268 276 277 243 nan nan nan nan nan nan nan nan nan nan nan nan nan nan nan nan nan nan nan nan nan nan nan nan nan nan nan nan nan nan nan nan nan nan nan nan nan nan nan nan nan nan nan nan nan nan nan nan nan nan nan nan nan nan nan 217 211 222 nan 225 228 227 226 226 228 232 236 236 240 246 250 251 252 252 251 251 252 255 260 259 252 254 257 254